TimeMST,TemperatureF,Dew PointF,Humidity,Sea Level PressureIn,VisibilityMPH,Wind Direction,Wind SpeedMPH,Gust SpeedMPH,PrecipitationIn,Events,Conditions,WindDirDegrees,DateUTC
12:15 AM,28.6,12.6,51,30.40,10.0,North,3.5,-,N/A,,Clear,350,2012-11-14 07:15:00
12:35 AM,28.4,12.6,52,30.40,10.0,NNW,6.9,-,N/A,,Clear,340,2012-11-14 07:35:00
12:55 AM,28.0,12.6,52,30.39,10.0,Calm,Calm,-,N/A,,Clear,0,2012-11-14 07:55:00
1:15 AM,27.1,12.2,53,30.39,10.0,Calm,Calm,-,N/A,,Clear,0,2012-11-14 08:15:00
1:35 AM,26.2,12.2,55,30.38,10.0,NNW,6.9,-,N/A,,Clear,340,2012-11-14 08:35:00
1:55 AM,26.1,11.8,55,30.38,10.0,NNW,4.6,-,N/A,,Clear,340,2012-11-14 08:55:00
2:15 AM,26.2,12.0,55,30.38,10.0,NNW,4.6,-,N/A,,Clear,330,2012-11-14 09:15:00
2:55 AM,25.7,11.5,55,30.36,10.0,NNW,11.5,-,N/A,,Clear,330,2012-11-14 09:55:00
3:15 AM,26.4,11.3,53,30.35,10.0,NNW,13.8,-,N/A,,Clear,330,2012-11-14 10:15:00
3:35 AM,26.8,11.5,53,30.34,10.0,NNW,12.7,17.3,N/A,,Clear,330,2012-11-14 10:35:00
3:55 AM,25.5,11.3,55,30.34,10.0,NNW,12.7,-,N/A,,Clear,330,2012-11-14 10:55:00
4:15 AM,24.8,10.9,56,30.34,10.0,Calm,Calm,-,N/A,,Clear,0,2012-11-14 11:15:00
4:35 AM,24.1,10.6,56,30.34,10.0,NW,3.5,-,N/A,,Clear,310,2012-11-14 11:35:00
4:55 AM,23.7,10.2,56,30.34,10.0,NW,3.5,-,N/A,,Clear,320,2012-11-14 11:55:00
5:15 AM,24.1,10.4,56,30.35,10.0,NW,5.8,-,N/A,,Clear,320,2012-11-14 12:15:00
5:55 AM,23.7,10.2,56,30.33,10.0,NNW,3.5,16.1,N/A,,Clear,340,2012-11-14 12:55:00
6:15 AM,23.4,9.9,56,30.34,10.0,North,3.5,-,N/A,,Clear,350,2012-11-14 13:15:00
6:35 AM,22.6,9.7,58,30.33,10.0,NW,4.6,-,N/A,,Clear,320,2012-11-14 13:35:00
6:55 AM,23.4,9.5,55,30.34,10.0,NNW,5.8,-,N/A,,Clear,330,2012-11-14 13:55:00
7:15 AM,23.5,9.5,55,30.35,10.0,NW,4.6,-,N/A,,Clear,310,2012-11-14 14:15:00
7:35 AM,24.6,9.3,52,30.35,10.0,NNW,3.5,-,N/A,,Clear,340,2012-11-14 14:35:00
7:55 AM,26.2,8.8,48,30.35,10.0,NW,4.6,-,N/A,,Clear,310,2012-11-14 14:55:00
8:15 AM,28.6,8.4,43,30.35,10.0,NNW,5.8,-,N/A,,Clear,330,2012-11-14 15:15:00
8:35 AM,30.6,8.2,39,30.35,10.0,NW,4.6,-,N/A,,Clear,310,2012-11-14 15:35:00
8:55 AM,32.7,8.2,36,30.35,10.0,North,4.6,-,N/A,,Clear,360,2012-11-14 15:55:00
9:15 AM,35.4,8.6,33,30.34,10.0,North,4.6,-,N/A,,Clear,360,2012-11-14 16:15:00
9:35 AM,40.5,7.7,26,30.34,10.0,North,4.6,-,N/A,,Clear,360,2012-11-14 16:35:00
9:55 AM,45.3,4.1,18,30.33,10.0,NNE,6.9,-,N/A,,Clear,20,2012-11-14 16:55:00
10:15 AM,52.7,-2.2,10,30.32,10.0,SW,12.7,19.6,N/A,,Clear,220,2012-11-14 17:15:00
10:35 AM,53.2,-2.7,10,30.31,10.0,SW,16.1,24.2,N/A,,Clear,220,2012-11-14 17:35:00
10:55 AM,54.3,-2.4,10,30.31,10.0,SW,13.8,25.3,N/A,,Clear,220,2012-11-14 17:55:00
11:15 AM,53.8,-1.8,10,30.29,10.0,SW,17.3,25.3,N/A,,Clear,220,2012-11-14 18:15:00
11:55 AM,54.9,-2.2,10,30.29,10.0,SSW,16.1,25.3,N/A,,Clear,210,2012-11-14 18:55:00
12:15 PM,54.5,-2.6,10,30.27,10.0,SW,18.4,29.9,N/A,,Clear,220,2012-11-14 19:15:00
12:35 PM,54.5,-2.2,10,30.27,10.0,SW,17.3,26.5,N/A,,Clear,220,2012-11-14 19:35:00
12:55 PM,54.5,-2.6,10,30.28,10.0,WSW,16.1,21.9,N/A,,Clear,250,2012-11-14 19:55:00
1:15 PM,54.3,-2.6,10,30.27,10.0,SSW,16.1,25.3,N/A,,Clear,200,2012-11-14 20:15:00
1:35 PM,55.6,-2.0,10,30.27,10.0,SSW,17.3,27.6,N/A,,Clear,210,2012-11-14 20:35:00
1:55 PM,55.4,-8.1,7,30.27,10.0,WSW,21.9,28.8,N/A,,Clear,240,2012-11-14 20:55:00
2:35 PM,54.7,-7.6,8,30.26,10.0,SW,23.0,32.2,N/A,,Clear,230,2012-11-14 21:35:00
2:55 PM,54.5,-7.4,8,30.26,10.0,WSW,17.3,25.3,N/A,,Clear,240,2012-11-14 21:55:00
3:15 PM,54.1,-7.8,8,30.26,10.0,WSW,15.0,23.0,N/A,,Clear,240,2012-11-14 22:15:00
3:35 PM,53.6,-7.2,8,30.25,10.0,SW,17.3,26.5,N/A,,Clear,230,2012-11-14 22:35:00
3:55 PM,51.8,-7.1,9,30.25,10.0,WSW,19.6,24.2,N/A,,Clear,240,2012-11-14 22:55:00
4:15 PM,50.2,-6.3,9,30.25,10.0,WSW,17.3,27.6,N/A,,Clear,240,2012-11-14 23:15:00
4:35 PM,48.6,-5.6,10,30.26,10.0,SW,16.1,24.2,N/A,,Clear,230,2012-11-14 23:35:00
4:55 PM,47.5,-4.9,11,30.27,10.0,SW,16.1,-,N/A,,Clear,220,2012-11-14 23:55:00
5:15 PM,46.0,-2.2,13,30.27,10.0,SSW,10.4,18.4,N/A,,Clear,210,2012-11-15 00:15:00
5:35 PM,45.5,-1.5,14,30.28,10.0,SW,12.7,-,N/A,,Clear,230,2012-11-15 00:35:00
5:55 PM,45.1,-0.0,15,30.29,10.0,SW,10.4,17.3,N/A,,Clear,220,2012-11-15 00:55:00
6:15 PM,45.1,0.3,16,30.29,10.0,SSW,11.5,-,N/A,,Clear,210,2012-11-15 01:15:00
6:35 PM,43.9,1.0,17,30.29,10.0,SW,11.5,-,N/A,,Clear,220,2012-11-15 01:35:00
6:55 PM,43.9,2.1,18,30.28,10.0,SW,12.7,20.7,N/A,,Clear,220,2012-11-15 01:55:00
7:15 PM,43.7,2.7,18,30.28,10.0,WSW,15.0,19.6,N/A,,Clear,250,2012-11-15 02:15:00
7:55 PM,43.5,2.5,18,30.29,10.0,WSW,9.2,18.4,N/A,,Clear,240,2012-11-15 02:55:00
8:15 PM,43.0,1.2,18,30.29,10.0,WSW,13.8,-,N/A,,Clear,250,2012-11-15 03:15:00
8:35 PM,42.6,1.8,18,30.29,10.0,SW,13.8,19.6,N/A,,Clear,220,2012-11-15 03:35:00
8:55 PM,40.3,0.5,19,30.30,10.0,NNW,3.5,-,N/A,,Clear,330,2012-11-15 03:55:00
9:15 PM,38.5,0.9,21,30.30,10.0,WNW,8.1,-,N/A,,Clear,300,2012-11-15 04:15:00
9:35 PM,38.7,1.2,21,30.30,10.0,West,8.1,-,N/A,,Clear,280,2012-11-15 04:35:00
9:55 PM,36.1,-0.2,21,30.29,10.0,Calm,Calm,-,N/A,,Clear,0,2012-11-15 04:55:00
10:15 PM,38.8,1.4,21,30.29,10.0,West,3.5,-,N/A,,Clear,280,2012-11-15 05:15:00
10:35 PM,35.8,0.7,23,30.29,10.0,NW,4.6,-,N/A,,Clear,310,2012-11-15 05:35:00
10:55 PM,35.1,1.2,24,30.29,10.0,West,3.5,-,N/A,,Clear,280,2012-11-15 05:55:00
11:15 PM,32.5,1.0,26,30.30,10.0,Calm,Calm,-,N/A,,Clear,0,2012-11-15 06:15:00
11:35 PM,31.8,0.3,26,30.31,10.0,North,4.6,-,N/A,,Clear,350,2012-11-15 06:35:00
11:55 PM,34.2,0.1,24,30.32,10.0,NNW,3.5,-,N/A,,Clear,340,2012-11-15 06:55:00